CW8014 Weather Reports


Display with metric or nautical units.
time (UTC)temp
F
wind
direction
speed
MPH
gust
MPH
rain 1hr
in
rain 24hr
in
rain mn
in
humidity
%
barometer
mb
20260904143411 64 346 6.0 15.0 0.00 0.41 0.41 95 1008.4
20260904142502 64 284 8.0 18.0 0.00 0.41 0.41 94 1008.5
20260904142402 64 271 6.0 18.0 0.00 0.41 0.41 95 1008.5
20260904141402 64 315 10.0 19.0 0.00 0.41 0.41 95 1008.3
20260904140402 64 293 8.0 19.0 0.00 0.41 0.41 95 1008.0
20260904135403 64 266 7.0 16.0 0.01 0.41 0.41 95 1007.8
20260904132402 63 277 5.0 16.0 0.03 0.41 0.41 95 1007.1
20260904131402 63 217 7.0 13.0 0.05 0.41 0.41 95 1008.0
20260904130402 64 175 9.0 18.0 0.06 0.41 0.41 95 1008.0
20260904125402 63 161 5.0 13.0 0.06 0.40 0.40 95 1007.4
20260904124402 63 212 7.0 12.0 0.06 0.39 0.39 95 1007.6
20260904123404 63 242 8.0 15.0 0.05 0.39 0.39 94 1007.8
20260904122402 64 208 4.0 11.0 0.05 0.38 0.38 94 1006.8
20260904121403 64 217 4.0 9.0 0.03 0.36 0.36 94 1007.0
20260904120402 65 205 7.0 19.0 0.03 0.35 0.35 94 1007.2
20260904115403 65 227 4.0 10.0 0.02 0.35 0.35 94 1006.9
20260904113403 67 263 8.0 22.0 0.02 0.34 0.34 95 1007.3
20260904112402 67 223 7.0 16.0 0.02 0.33 0.33 96 1007.2
20260904111404 68 288 7.0 18.0 0.18 0.33 0.33 96 1007.2
20260904110402 68 253 7.0 16.0 0.20 0.32 0.32 96 1007.1
20260904105403 68 267 5.0 14.0 0.20 0.32 0.32 96 1006.8
20260904104402 68 258 6.0 14.0 0.21 0.32 0.32 96 1007.1
20260904102402 67 229 6.0 14.0 0.20 0.31 0.31 95 1007.0
20260904101402 68 308 7.0 19.0 0.04 0.15 0.15 95 1006.7
20260904100402 68 70 6.0 16.0 0.02 0.13 0.13 95 1006.3
20260904095403 68 273 7.0 19.0 0.02 0.13 0.12 94 1006.3
20260904094402 68 240 8.0 15.0 0.01 0.12 0.11 94 1006.3
20260904093402 68 325 6.0 17.0 0.01 0.12 0.11 93 1006.3
20260904092402 68 227 8.0 17.0 0.01 0.12 0.11 92 1006.3
20260904091402 68 195 8.0 21.0 0.01 0.12 0.11 91 1006.3
20260904090402 69 251 7.0 20.0 0.00 0.11 0.10 91 1006.3
20260904085403 68 251 6.0 18.0 0.01 0.11 0.10 92 1006.5
20260904083402 67 257 7.0 17.0 0.01 0.11 0.10 93 1006.6
20260904082407 67 261 7.0 17.0 0.01 0.11 0.10 93 1006.8
20260904081407 67 188 7.0 17.0 0.01 0.11 0.10 93 1006.9
20260904074407 67 209 6.0 14.0 0.00 0.10 0.09 92 1007.1
20260904073407 67 172 6.0 15.0 0.00 0.10 0.09 92 1007.3
20260904072407 67 188 5.0 15.0 0.00 0.10 0.09 93 1007.4
20260904071407 67 131 6.0 19.0 0.00 0.10 0.09 93 1007.6
20260904070407 67 144 6.0 16.0 0.01 0.10 0.09 94 1007.6
20260904065409 67 181 7.0 17.0 0.01 0.10 0.09 95 1007.9
20260904064407 66 290 6.0 20.0 0.02 0.10 0.09 95 1008.0
20260904062407 66 184 6.0 12.0 0.02 0.10 0.09 95 1008.2
20260904061409 66 202 5.0 14.0 0.03 0.10 0.09 95 1008.4
20260904060407 66 142 4.0 10.0 0.02 0.09 0.09 95 1008.5
20260904054407 66 191 5.0 11.0 0.02 0.09 0.08 95 1008.9
20260904053407 66 220 5.0 10.0 0.03 0.09 0.08 95 1008.9
20260904052409 66 167 6.0 14.0 0.06 0.08 0.07 95 1009.0
20260904051407 66 168 5.0 13.0 0.05 0.07 0.06 95 1009.0
20260904045408 66 252 3.0 9.0 0.05 0.07 0.06 95 1009.0
20260904044407 66 222 3.0 8.0 0.05 0.07 0.06 94 1009.2
20260904042407 67 178 4.0 10.0 0.00 0.02 0.02 93 1009.6
20260904040407 67 162 5.0 14.0 0.00 0.02 0.02 92 1009.9
20260904034407 66 178 7.0 12.0 0.00 0.02 0.02 93 1010.2
20260904033407 66 156 4.0 15.0 0.00 0.02 0.02 93 1010.4
20260904032409 66 229 4.0 12.0 0.00 0.02 0.02 94 1010.2
20260904031407 66 150 5.0 16.0 0.00 0.02 0.02 94 1010.5
20260904024407 66 175 4.0 9.0 0.01 0.02 0.02 94 1010.9
20260904023407 66 171 3.0 8.0 0.02 0.02 0.02 94 1011.0
20260904022408 66 142 6.0 14.0 0.02 0.02 0.02 94 1010.9
20260904021407 66 193 4.0 10.0 0.02 0.02 0.02 94 1011.2
20260904020407 66 153 5.0 9.0 0.01 0.02 0.01 94 1011.3
20260904015408 66 180 3.0 8.0 0.01 0.02 0.01 93 1011.5
20260904014407 66 206 4.0 11.0 0.01 0.02 0.01 93 1011.7
20260904013407 66 198 4.0 11.0 0.00 0.01 0.00 93 1012.1
20260904010407 66 163 3.0 7.0 0.00 0.01 0.00 92 1012.4
20260904004407 65 189 5.0 10.0 0.00 0.01 0.00 92 1012.5
20260904003408 65 175 3.0 7.0 0.00 0.01 0.00 92 1012.8
20260904002407 65 192 1.0 6.0 0.00 0.01 0.00 92 1013.0
20260904001407 65 178 3.0 7.0 0.00 0.01 0.00 91 1013.0
20260904000407 65 167 3.0 9.0 0.00 0.01 0.00 91 1013.1
20260903234407 65 188 1.0 4.0 0.00 0.01 0.00 91 1013.7
20260903233407 65 215 2.0 8.0 0.00 0.01 0.00 90 1013.9
20260903231407 65 155 3.0 5.0 0.00 0.01 0.00 90 1014.1
20260903225407 65 190 2.0 8.0 0.00 0.01 0.00 91 1014.1
20260903223407 65 240 2.0 7.0 0.00 0.01 0.00 91 1014.5
20260903222408 64 196 1.0 4.0 0.00 0.01 0.00 90 1014.6
20260903221407 65 215 0.0 3.0 0.00 0.01 0.00 90 1014.7
20260903215411 65 205 2.0 5.0 0.00 0.01 0.01 89 1014.7
20260903214409 65 251 2.0 5.0 0.00 0.01 0.01 89 1015.0
20260903212409 65 231 3.0 7.0 0.00 0.01 0.01 88 1015.2
20260903211409 65 221 1.0 3.0 0.00 0.01 0.01 88 1015.1
20260903210410 65 231 3.0 6.0 0.00 0.01 0.01 87 1015.1
20260903205409 65 230 1.0 5.0 0.00 0.01 0.01 87 1015.4
20260903204409 65 197 2.0 5.0 0.00 0.01 0.01 86 1015.3
20260903203409 65 268 2.0 6.0 0.00 0.01 0.01 86 1015.3
20260903202410 65 220 3.0 10.0 0.00 0.01 0.01 85 1015.2
20260903201409 65 242 2.0 5.0 0.00 0.01 0.01 85 1015.5
20260903200409 65 226 2.0 7.0 0.00 0.01 0.01 85 1015.5
20260903195409 65 249 3.0 7.0 0.00 0.01 0.01 85 1015.6
20260903194409 64 248 2.0 5.0 0.00 0.01 0.01 85 1015.4
20260903193409 64 226 2.0 4.0 0.00 0.01 0.01 84 1015.5
20260903190410 65 243 3.0 8.0 0.00 0.01 0.01 83 1015.5
20260903185409 65 204 2.0 6.0 0.00 0.01 0.01 82 1015.7
20260903184409 66 279 3.0 7.0 0.00 0.01 0.01 81 1015.4
20260903183409 66 246 3.0 8.0 0.00 0.01 0.01 81 1015.5
20260903182409 67 250 4.0 13.0 0.00 0.01 0.01 80 1015.2
20260903181409 67 250 4.0 9.0 0.00 0.01 0.01 80 1015.3
20260903180409 67 282 3.0 7.0 0.00 0.01 0.01 81 1015.4
20260903174409 68 288 3.0 7.0 0.00 0.01 0.01 80 1015.2
20260903172411 68 304 5.0 12.0 0.00 0.01 0.01 78 1015.4
20260903171409 68 271 5.0 12.0 0.00 0.01 0.01 78 1015.1
20260903165410 69 281 7.0 15.0 0.00 0.01 0.01 77 1015.0
20260903164409 69 226 6.0 16.0 0.00 0.01 0.01 77 1015.0
20260903163409 69 262 7.0 12.0 0.00 0.01 0.01 77 1015.0
20260903162409 70 271 8.0 17.0 0.00 0.01 0.01 76 1015.0
20260903161409 70 296 5.0 11.0 0.00 0.01 0.01 77 1015.0
20260903160409 70 327 8.0 20.0 0.00 0.01 0.01 75 1015.0
20260903155411 71 263 9.0 21.0 0.00 0.01 0.01 73 1014.9
20260903154410 70 287 8.0 20.0 0.00 0.01 0.01 75 1014.6
20260903153410 71 281 10.0 19.0 0.00 0.01 0.01 73 1014.7